Preview of NWS' New Version of Forecast
This preview is not operational and should not be used for support decisions.

Regional Weather Roundup (RWR)

Issued by National Weather Service (NWS)

                            
000
ASUS43 KMKX 240259
RWRWI 

WISCONSIN REGIONAL WEATHER ROUNDUP
NATIONAL WEATHER SERVICE MILWAUKEE/SULLIVAN WI
1000 PM CDT TUE APR 23 2019

NOTE: "FAIR" INDICATES FEW OR NO CLOUDS BELOW 12,000 FEET WITH NO
SIGNIFICANT WEATHER AND/OR OBSTRUCTIONS TO VISIBILITY.

WIZ001-002-006>008-014>016-023>028-240400-
NORTHWEST WISCONSIN
  
CITY           SKY/WX    TMP DP  RH WIND       PRES   REMARKS
SUPERIOR ARPT  FAIR      37  30  75 NE5       29.99S WCI  34          
ASHLAND        FAIR      38  30  73 CALM      30.00F                  
HAYWARD        FAIR      44  37  76 CALM      29.99S                  
SIREN          FAIR      52  38  59 S6        29.98S                  
CUMBERLAND     FAIR      46  37  71 CALM      30.00F                  
RICE LAKE      FAIR      48  38  68 CALM      30.02S                  
CHETEK         FAIR      45  37  74 CALM      30.01S                  
LADYSMITH      FAIR      46  40  77 CALM      30.02S                  
EAU CLAIRE     NOT AVBL                                               
MENOMONIE      FAIR      49  32  51 CALM      30.01S                  
NEW RICHMOND   FAIR      49  38  67 CALM      30.01R                  
OSCEOLA        FAIR      49  40  70 S5        30.02S                  
$$
 
WIZ003>005-009-010-017-018-240400-
NORTH CENTRAL WISCONSIN
  
CITY           SKY/WX    TMP DP  RH WIND       PRES   REMARKS
MANITOWISH WTR FAIR      37  35  95 CALM      30.01F                  
ARBOR VITAE    FAIR      41  32  69 CALM      30.01F                  
WOODRUFF       FAIR      41  32  69 CALM      30.01F                  
RHINELANDER    FAIR      44  26  49 CALM      30.03S                  
EAGLE RIVER    FAIR      36  29  75 CALM      30.01F                  
LAND O LAKES   FAIR      34  30  86 CALM      30.04F                  
PHILLIPS       FAIR      42  35  74 CALM      30.01S                  
TOMAHAWK       FAIR      38  32  80 CALM      30.03S                  
MEDFORD        FAIR      44  35  69 S5        30.02R                  
MERRILL        FAIR      40  33  76 CALM      30.03S                  
$$
 
WIZ029-030-035-036-043>047-240400-
CENTRAL WISCONSIN
  
CITY           SKY/WX    TMP DP  RH WIND       PRES   REMARKS
WAUSAU         FAIR      48  32  53 E3        30.01R                  
MOSINEE        FAIR      50  30  46 E5        30.03S                  
MARSHFIELD     FAIR      48  35  60 CALM      30.01R                  
STEVENS POINT  FAIR      44  32  63 CALM      30.03S                  
WAUPACA        FAIR      50  32  50 CALM      30.03R                  
WAUTOMA        FAIR      46  40  79 CALM      30.03S                  
WISC RAPIDS    FAIR      46  32  58 CALM      30.03R                  
CAMP DOUGLAS   NOT AVBL                                               
$$
 
WIZ011>013-019>022-031-037>040-048>050-240400-
NORTHEAST WISCONSIN
  
CITY           SKY/WX    TMP DP  RH WIND       PRES   REMARKS
ANTIGO         FAIR      43  33  65 E5        30.03S                  
SHAWANO        FAIR      46  32  59 E5        30.05S                  
OCONTO         FAIR      40  35  84 CALM      30.06S                  
STURGEON BAY   FAIR      40  35  83 CALM      30.07R                  
GREEN BAY      FAIR      44  37  76 SE8       30.06S                  
MANITOWOC      NOT AVBL                                               
APPLETON       PTCLDY    45  34  65 SE10      30.04R                  
CLINTONVILLE   FAIR      48  38  67 SE8       30.04R                  
OSHKOSH        FAIR      45  40  82 SE9       30.04R                  
$$
 
WIZ032>034-041-042-053>061-240400-
SOUTHWEST WISCONSIN
  
CITY           SKY/WX    TMP DP  RH WIND       PRES   REMARKS
LA CROSSE      FAIR      52  35  52 CALM      30.01S                  
SPARTA         FAIR      46  38  75 CALM      30.03S                  
VIROQUA        FAIR      54  37  52 CALM      30.02S                  
BOSCOBEL       FAIR      49  39  68 CALM      30.02S                  
PRAIRIE DU CHI FAIR      51  41  69 CALM      30.02S                  
PLATTEVILLE    FAIR      55  39  54 CALM      30.03S                  
$$

WIZ056-057-062-063-064-067-068-240400-
SOUTH CENTRAL WISCONSIN
  
CITY           SKY/WX    TMP DP  RH WIND       PRES   REMARKS
REEDSBURG      FAIR      50  37  60 CALM      30.02S                  
BARABOO/DELLS  FAIR      48  35  60 CALM      30.02S                  
LONE ROCK      NOT AVBL                                               
MINERAL POINT  FAIR      55  34  44 CALM      30.03S                  
MADISON        FAIR      49  37  63 CALM      30.02S                  
MIDDLETON      FAIR      49  45  85 CALM      30.03S                  
WATERTOWN      FAIR      49  43  79 E7        30.03R                  
MONROE         FAIR      57  33  40 MISG      30.03R                  
JANESVILLE     FAIR      52  36  54 CALM      30.02S                  
$$
 
WIZ051-052-058>065-066-070>072-240400-
SOUTHEAST WISCONSIN
  
CITY           SKY/WX    TMP DP  RH WIND       PRES   REMARKS
MILWAUKEE      FAIR      42  36  79 E6        30.07R                  
WAUKESHA       FAIR      41  36  81 E8        30.06S                  
MILWAUKEE/TIMM FAIR      41  34  75 CALM      30.08S                  
RACINE         FAIR      40  36  86 E3        30.08S                  
KENOSHA        FAIR      42  39  89 E8        30.05S                  
FOND DU LAC    FAIR      44  38  79 SE12      30.05R                  
SHEBOYGAN      FAIR      41  36  82 CALM      30.07S                  
WEST BEND      FAIR      37  36  93 SE3       30.07S                  
JUNEAU         FAIR      49  42  76 E9        30.04S                  
$$

LSZ147-162-240400-
LAKE SUPERIOR
  
STATION/POSITION TIME  TEMP    WIND        PRES    WAVE
                       AIR SEA DIR/SP/G            HT/PER
                 (UTC) (F)     (DEG/KT/KT) (MB)    (FT/S)
$$
 
LMZ867-665-643>646-240400-
LAKE MICHIGAN
  
STATION/POSITION TIME  TEMP    WIND        PRES    WAVE
                       AIR SEA DIR/SP/G            HT/PER
                 (UTC) (F)     (DEG/KT/KT) (MB)    (FT/S)
NORTHPORT PIER   0240   40     330/  2/  2 1017.6R
KEWAUNEE LAKESHO 0230   43     170/  3/  5 1017.3R
SHEBOYGAN LAKESH 0200   42     180/  2/  3 1018.5R
MILWAUKEE LAKESH 0230   41                   N/A
KENOSHA   LAKESH 0200   42     120/  6/  7 1017.6
$$

TC  - TEMPERATURE IN CELSIUS
VSB - VISIBILITY IN STATUTE MILES
WCI - WIND CHILL INDEX
HX  - HEAT INDEX